Wind_Speed
57 57 56 55 54 54 54 53 52 51 51 51 50 49 48 47 46 45 44 43 43 43 42 43 43 43 43 44 44 44 45 45 46 46 47 47 47 48 48 48 49 49 49 49 49 50 50 50 50 50 51 51 51 51 51 51 51 51 51 51 51 51 51 51 51 51 51 51 51 51 51 51 51 51 51 52 52 52 52 52 51 51 51 51 51 50
55 54 54 53 52 52 52 52 51 50 49 49 48 47 46 45 44 44 43 42 42 42 43 43 44 44 45 45 45 46 47 47 47 48 48 49 49 50 50 50 50 50 51 51 51 51 51 51 51 51 52 52 52 52 52 52 52 52 52 52 52 52 52 51 52 52 52 52 52 52 52 52 52 52 52 52 52 52 52 52 52 52 52 52 51 51
53 52 52 52 51 50 50 50 49 48 47 46 46 45 44 44 43 43 42 42 43 43 44 45 45 46 46 47 47 48 48 49 49 50 50 51 51 51 51 52 52 52 52 52 52 52 52 52 52 52 52 52 52 52 53 53 53 53 53 52 52 52 52 52 52 52 52 52 52 52 52 53 53 53 53 53 53 53 53 53 53 53 53 52 52 52
51 51 51 51 50 49 49 48 47 46 45 45 44 44 43 43 43 43 43 43 44 44 45 46 46 47 48 48 49 49 50 50 51 51 52 52 52 53 53 53 53 53 53 53 53 53 53 53 53 53 53 53 53 53 53 53 53 53 53 53 53 53 53 53 53 53 53 53 53 53 53 53 53 54 54 54 54 54 54 54 54 53 53 53 53 53
50 49 49 49 49 48 47 46 45 45 44 44 43 43 43 43 44 44 44 45 45 46 47 47 48 48 49 50 50 51 51 51 52 52 53 53 53 53 54 54 54 54 54 54 54 54 53 53 53 53 53 53 54 54 54 54 54 54 54 54 54 54 54 54 54 54 54 54 54 54 54 54 54 54 55 55 55 55 55 55 54 54 54 54 53 53
49 48 48 47 47 46 45 45 44 44 43 43 43 43 44 44 45 45 46 46 47 47 48 48 49 49 50 51 51 51 52 52 53 53 53 53 54 54 54 54 54 54 54 54 54 54 54 54 54 54 54 54 54 54 55 55 55 55 55 55 55 55 55 55 55 55 55 55 55 55 55 55 55 55 55 56 56 56 55 55 55 55 54 54 54 53
48 47 46 45 45 45 44 44 43 43 43 44 44 44 45 45 46 46 47 47 48 48 49 49 50 50 51 51 51 52 52 53 53 53 53 54 54 54 54 54 55 55 55 55 54 54 54 54 54 54 54 54 55 55 55 55 56 56 56 56 56 56 56 56 56 56 56 56 56 56 56 56 56 56 56 56 56 56 56 56 56 55 55 54 54 54
46 45 45 44 44 44 44 44 44 44 44 45 45 46 46 46 47 47 48 48 49 49 50 50 50 51 51 51 52 52 52 53 53 53 53 54 54 54 54 55 55 55 55 55 55 55 55 54 54 54 54 55 55 55 56 56 56 56 56 57 57 57 57 56 56 56 56 57 57 57 57 57 57 57 57 57 57 57 57 57 56 56 55 55 54 54
45 45 44 44 44 44 44 44 45 45 45 46 46 47 47 47 48 48 48 49 49 49 50 50 51 51 51 51 52 52 53 53 53 53 54 54 54 54 55 55 55 55 55 55 55 55 55 55 55 55 55 55 55 56 56 56 56 57 57 57 57 57 57 57 57 57 57 57 58 58 58 58 59 59 59 59 58 58 58 58 57 56 56 55 55 54
44 44 44 44 44 45 45 46 46 46 46 47 47 48 48 48 49 49 49 49 49 49 50 50 50 51 51 52 52 52 53 53 53 54 54 54 55 55 55 55 55 56 56 56 56 56 56 55 55 55 55 55 55 56 56 56 57 57 57 57 57 57 57 58 58 58 58 58 59 59 59 60 60 60 60 60 60 59 59 58 58 57 56 56 55 55
44 45 45 45 45 46 46 47 47 47 47 48 49 49 49 49 50 50 50 50 50 50 50 50 51 51 51 52 52 53 53 54 54 54 55 55 55 56 56 56 56 56 56 56 56 56 56 56 56 56 56 56 56 56 56 56 57 57 57 57 58 58 58 58 58 59 59 59 60 60 61 61 61 62 61 61 61 60 60 59 58 57 57 56 55 55
45 46 46 46 47 47 47 48 48 48 49 49 50 50 50 50 50 50 50 51 50 50 50 51 51 52 52 52 53 53 54 54 54 55 55 55 56 56 56 57 57 57 57 57 57 57 57 57 56 56 56 56 56 56 56 57 57 57 57 58 58 58 58 59 59 60 60 60 61 61 62 62 63 63 63 63 62 61 61 60 59 58 57 57 56 56
46 47 47 47 48 48 48 49 49 49 50 50 50 51 51 50 50 50 51 51 51 51 51 52 52 52 53 53 53 54 54 54 55 55 56 56 56 56 57 57 57 57 57 58 58 58 57 57 57 57 56 56 56 56 56 57 57 57 58 58 58 59 59 60 60 61 61 62 62 63 63 64 64 64 64 63 63 62 61 60 59 58 58 57 57 56
48 48 48 48 49 49 49 49 50 50 51 51 51 51 51 51 51 51 51 51 51 52 52 52 53 53 53 54 54 54 55 55 55 56 56 56 57 57 57 58 58 58 58 58 58 58 58 58 57 57 57 56 56 56 57 57 57 58 58 58 59 59 60 60 61 62 62 63 63 64 64 64 65 65 64 64 63 62 61 61 60 59 58 58 57 57
49 49 49 49 49 50 50 50 51 51 51 52 52 52 52 52 52 52 52 52 52 52 53 53 54 54 54 54 55 55 55 56 56 57 57 57 58 58 58 58 58 58 58 59 59 59 59 58 58 58 57 57 57 57 57 57 58 58 58 59 59 60 61 61 62 62 63 64 64 65 65 65 65 65 64 64 63 62 62 61 60 59 59 58 58 57
50 50 50 50 51 51 51 51 52 52 52 52 52 53 53 53 52 52 52 53 53 53 54 54 54 55 55 55 55 56 56 57 57 57 58 58 58 59 59 59 59 59 59 59 59 59 59 59 58 58 58 57 57 57 57 57 58 58 59 59 60 60 61 62 62 63 64 64 65 65 65 65 65 65 64 64 63 62 62 61 60 60 59 59 59 58
51 51 51 51 52 52 52 52 52 53 53 53 53 53 53 53 53 53 53 54 54 54 54 55 55 56 56 56 56 56 57 57 58 58 58 59 59 59 59 60 60 60 60 60 60 60 60 59 59 58 58 58 57 57 57 58 58 58 59 59 60 61 61 62 63 63 64 65 65 65 65 65 65 64 64 63 63 62 62 61 61 60 60 60 59 59
52 52 52 53 53 53 53 53 53 54 54 54 54 54 54 54 54 54 54 54 55 55 55 56 56 57 57 57 57 57 57 58 58 59 59 59 60 60 60 60 60 60 61 61 61 60 60 60 59 59 58 58 58 58 58 58 58 59 59 60 60 61 62 63 63 64 64 65 65 65 65 65 65 64 64 64 63 63 62 62 61 61 61 60 60 60
53 53 54 54 54 54 54 54 54 54 54 54 54 54 55 55 55 55 55 55 55 56 56 57 57 57 58 58 58 58 58 58 59 59 59 60 60 61 61 61 61 61 61 61 61 61 61 60 60 59 59 58 58 58 58 58 59 59 60 60 61 62 63 63 64 64 65 65 65 65 65 65 65 65 64 64 63 63 63 62 62 62 61 61 61 60
54 54 55 55 55 55 55 55 55 55 55 55 55 55 55 56 56 56 56 56 56 57 57 57 58 58 58 59 59 59 59 59 59 59 60 60 61 61 62 61 62 62 62 62 62 61 61 61 60 59 59 58 58 58 58 58 59 59 60 61 62 62 63 64 64 65 65 65 65 65 65 65 65 65 65 64 64 63 63 63 62 62 62 61 61 61
55 55 56 56 56 56 56 56 56 56 56 56 56 56 56 56 57 57 57 57 57 57 58 58 58 59 59 59 59 60 60 60 60 60 60 60 61 62 62 62 62 62 62 62 62 62 61 61 60 59 59 58 58 58 58 58 59 59 60 61 62 63 63 64 65 65 65 65 65 65 65 65 65 65 65 64 64 64 63 63 63 62 62 62 61 61
56 56 57 57 57 57 57 57 57 57 57 57 57 57 57 57 57 58 58 58 58 58 58 59 59 59 59 59 60 60 60 60 60 61 61 61 61 62 62 62 62 62 62 62 62 62 61 61 60 59 59 58 58 58 58 58 59 59 60 61 62 63 63 64 64 65 65 65 65 66 66 66 65 65 65 65 64 64 64 63 63 62 62 62 62 62
58 58 58 58 58 58 58 58 58 58 58 58 58 58 58 58 58 58 58 58 59 59 59 59 59 59 60 60 60 61 61 61 61 61 62 62 62 62 63 62 62 62 62 62 62 61 61 60 60 59 59 58 58 58 58 58 59 59 60 61 62 63 63 64 64 65 65 66 66 66 66 66 65 65 65 64 64 64 64 63 63 62 62 62 62 62
59 59 59 59 59 59 59 59 59 59 59 59 59 60 60 60 60 59 59 59 59 60 60 60 60 60 60 60 61 61 62 62 62 62 62 63 63 63 63 63 62 62 62 61 61 61 60 60 59 59 59 59 58 58 59 59 59 60 60 61 62 63 63 64 64 65 65 66 66 66 66 65 65 65 65 64 64 64 63 63 63 63 63 63 63 63
60 60 60 61 61 61 61 61 61 61 61 61 61 61 61 61 61 61 61 60 60 60 60 60 60 60 60 61 61 61 62 63 63 63 63 63 64 64 64 63 62 62 62 61 61 60 59 59 59 59 59 59 59 59 59 59 60 60 61 61 62 63 63 64 64 65 65 65 66 65 65 65 65 65 65 64 64 64 63 63 63 63 63 63 63 64
61 61 61 61 62 62 62 62 62 62 62 63 63 63 62 62 62 62 61 61 61 61 61 61 61 61 61 61 61 62 62 63 63 64 64 64 64 64 64 63 63 62 61 61 60 60 59 59 59 59 59 59 59 59 59 60 60 61 61 62 62 63 63 64 64 65 65 65 65 65 65 65 65 65 64 64 64 64 64 64 64 64 64 64 64 64
62 62 62 62 62 62 62 62 62 63 63 64 64 64 63 63 63 63 62 62 62 61 61 61 61 61 62 62 62 62 63 63 64 64 64 64 64 64 64 63 63 62 61 61 60 59 59 58 58 58 58 59 59 59 60 60 60 61 61 62 63 63 63 64 64 64 65 65 65 65 65 65 65 65 64 64 64 64 64 64 65 65 65 65 65 65
63 63 63 63 63 63 63 63 63 63 64 64 64 64 64 64 63 63 63 63 62 62 62 62 62 62 62 62 63 63 63 64 64 65 65 64 64 64 64 63 63 62 61 61 60 60 59 58 58 58 58 58 58 59 59 60 60 61 61 62 62 63 63 63 64 64 64 64 64 64 65 65 65 64 64 64 65 65 65 65 66 66 66 66 66 65
64 64 64 63 63 63 63 63 63 64 64 64 64 64 64 63 63 63 64 63 63 62 62 62 62 62 63 63 63 64 64 64 65 65 65 64 64 64 64 63 62 62 61 60 60 59 59 58 58 58 57 57 57 58 58 59 59 60 61 61 62 62 63 63 63 63 63 64 64 64 64 64 64 65 65 65 65 66 66 66 66 67 66 66 66 66
64 64 64 63 63 63 63 63 63 64 64 64 64 64 63 63 63 63 63 63 63 62 62 62 62 63 63 63 64 64 64 65 65 65 64 64 63 63 63 63 62 62 61 60 59 59 58 58 57 57 57 57 57 57 57 58 58 59 59 60 61 61 62 62 63 63 63 63 63 64 64 64 65 65 65 66 66 66 67 67 67 67 67 67 67 67
63 63 62 62 62 62 62 62 63 63 63 63 63 63 62 62 62 63 63 63 63 62 62 62 63 63 63 63 63 64 65 65 65 65 64 63 63 63 62 62 62 61 60 59 58 57 57 57 56 56 56 56 56 56 57 57 57 57 58 58 59 60 61 61 62 62 62 63 63 64 64 64 65 66 66 66 67 67 67 67 68 68 68 68 68 69
60 60 61 61 61 61 61 62 62 62 63 63 62 62 62 62 62 62 63 63 63 62 62 63 63 63 63 63 64 64 65 65 65 64 63 62 62 62 62 61 60 60 59 58 57 56 56 55 55 55 55 55 55 56 56 56 56 56 57 57 57 58 59 60 61 61 62 62 63 64 64 65 65 66 66 67 67 67 68 68 69 69 69 70 70 71
58 59 59 59 59 60 60 61 61 62 62 62 62 62 62 62 62 62 63 63 63 63 63 63 63 63 64 64 64 64 64 64 64 64 63 62 62 62 61 60 60 59 58 57 57 56 55 55 55 54 54 54 55 55 55 55 55 56 56 56 56 57 58 59 60 61 62 62 63 64 65 65 66 66 66 67 67 68 68 69 70 71 72 72 73 74
57 58 58 58 58 59 60 60 61 61 61 61 61 61 61 62 62 62 63 63 63 63 63 63 63 64 64 64 64 64 64 64 63 63 62 62 61 61 61 60 59 58 57 57 56 56 55 55 54 54 54 54 54 54 54 54 55 55 55 55 56 57 58 59 60 61 62 63 63 64 65 65 66 66 66 67 68 69 69 70 72 73 74 75 76 77
57 57 57 58 58 59 59 60 60 61 61 61 61 61 61 61 62 62 62 62 63 63 63 63 63 64 64 64 63 63 63 63 62 62 62 61 61 60 59 58 57 57 56 56 55 55 54 54 54 53 53 53 53 53 53 54 54 54 55 55 56 57 59 60 60 61 62 63 63 64 64 65 66 66 67 68 69 70 71 72 74 75 77 78 79 80
57 57 57 58 58 59 59 60 60 60 61 61 61 61 61 61 61 61 61 62 62 62 63 63 63 64 63 63 62 61 61 61 61 61 60 60 59 58 57 56 56 55 55 55 54 54 53 53 53 53 52 52 52 53 53 53 54 54 55 56 57 58 59 60 61 62 62 63 63 64 65 65 66 67 68 69 70 72 73 75 76 78 79 80 82 83
57 57 57 58 58 59 59 60 60 60 60 60 60 60 60 60 60 60 61 61 61 62 62 63 63 63 62 61 60 59 59 59 59 59 58 58 57 56 55 55 54 54 53 53 53 53 52 52 52 52 52 52 52 52 53 53 54 55 56 57 58 59 60 61 61 62 62 63 64 65 65 66 67 69 70 71 72 74 75 77 78 80 81 83 84 85
57 58 58 58 58 59 59 59 60 60 60 60 60 60 59 59 60 60 60 61 61 61 62 62 62 61 60 59 58 58 57 57 57 57 56 55 55 54 53 53 53 53 52 52 52 52 51 51 51 51 51 52 52 53 53 54 55 56 57 58 59 59 60 61 62 62 63 64 65 66 67 68 69 70 71 73 74 76 77 79 80 82 83 84 86 86
57 58 58 58 58 59 59 59 59 59 59 59 59 59 59 59 60 60 60 61 61 61 61 61 60 60 59 58 57 56 56 56 55 55 54 54 53 53 52 52 52 52 51 51 51 51 51 51 51 51 52 52 53 54 55 55 56 57 58 58 59 60 61 61 62 63 64 65 66 67 68 69 71 72 73 75 76 78 79 81 82 84 85 86 86 87
57 57 57 58 58 58 58 58 58 58 58 58 59 59 59 59 59 60 60 61 61 61 60 60 59 58 57 56 56 55 55 55 54 54 53 53 52 52 51 51 51 51 51 51 51 51 52 52 52 53 53 54 54 55 55 56 57 58 58 59 59 60 61 62 63 64 65 66 68 69 70 71 73 74 75 77 78 80 81 82 84 85 86 86 86 86
57 57 57 57 57 57 57 57 57 57 57 57 57 58 58 58 59 59 60 60 60 59 59 58 57 56 55 55 54 54 54 53 53 53 52 52 51 51 51 51 51 51 51 51 51 52 52 53 53 54 54 55 55 55 56 57 57 58 59 60 60 61 62 63 64 66 67 68 69 71 72 73 75 76 77 79 80 82 83 84 84 85 86 86 86 85
56 55 55 55 55 55 55 55 55 55 56 56 56 57 57 58 58 58 58 58 58 57 56 56 55 54 54 53 53 53 53 52 52 51 51 51 50 50 50 50 51 51 51 51 52 52 53 53 54 54 55 55 55 56 56 57 58 59 60 61 62 62 63 64 66 67 69 70 72 73 74 76 77 78 79 80 82 83 83 84 84 85 85 84 84 82
54 54 54 54 53 53 54 54 54 54 55 55 56 56 57 57 57 57 56 56 55 55 54 53 53 52 52 52 52 52 51 51 51 50 50 50 50 50 50 50 51 51 51 52 52 53 53 54 54 55 55 56 56 57 57 58 59 61 62 63 63 64 65 66 68 69 71 73 74 75 76 78 79 80 81 81 82 83 83 84 84 83 82 81 80 78
53 52 52 52 52 52 53 53 53 54 54 55 55 56 56 56 55 55 54 54 53 52 52 51 50 50 50 49 50 50 50 50 49 49 49 50 50 50 50 51 51 51 52 52 53 53 54 54 55 55 56 56 57 58 59 60 61 62 63 64 65 66 67 69 70 72 73 75 76 77 78 79 80 81 81 82 82 82 82 82 81 80 78 77 74 72
51 51 51 51 51 52 52 53 53 54 54 54 54 54 54 54 53 53 52 51 51 50 50 49 49 48 48 48 48 48 49 49 49 49 49 50 50 50 51 51 52 52 52 52 53 53 54 55 55 56 57 57 58 59 60 61 62 64 65 66 67 69 70 71 73 74 75 77 78 79 80 80 81 81 81 81 81 80 80 78 77 75 73 70 68 65
50 50 50 51 51 51 52 52 53 53 53 53 53 53 52 52 51 50 50 49 49 48 48 47 47 46 46 47 47 47 47 48 48 49 49 50 50 51 51 52 52 52 52 53 53 54 54 55 56 57 57 58 59 60 62 63 64 66 67 68 69 71 72 74 75 76 77 78 79 80 81 81 81 81 80 79 78 77 76 73 71 68 66 63 61 60
49 50 50 50 51 51 52 52 52 52 52 52 51 51 50 50 49 48 48 47 47 46 46 46 46 45 45 46 46 46 47 48 48 49 50 50 51 51 51 51 52 52 52 53 53 54 55 55 56 57 58 59 61 62 64 65 67 68 69 71 72 73 74 76 77 78 79 80 80 81 81 81 80 79 78 77 75 73 70 67 64 61 59 57 56 55
49 50 50 50 51 51 51 51 51 51 50 50 49 49 48 47 47 46 46 46 45 45 45 45 45 45 45 46 46 46 47 48 48 49 50 50 51 51 51 51 52 52 52 53 54 54 55 56 57 58 59 61 63 64 66 68 69 71 72 73 74 75 76 77 79 79 80 80 80 80 80 79 78 77 76 73 70 67 63 59 56 54 53 52 51 50
49 49 50 50 50 50 50 50 49 49 48 48 47 46 46 45 44 44 44 44 44 44 44 44 44 45 45 46 46 47 47 48 48 49 49 50 50 51 51 51 52 52 53 53 54 55 56 57 58 60 61 63 65 67 69 70 72 73 74 75 76 77 78 79 80 80 80 80 80 79 79 78 76 74 72 68 64 60 56 52 49 48 48 48 48 47
48 49 49 49 49 49 48 48 47 46 46 45 45 44 43 43 43 43 43 43 43 43 44 44 44 45 45 46 46 47 47 47 48 48 49 50 50 51 51 52 52 53 53 54 55 55 57 58 60 62 64 66 67 69 71 73 74 75 76 77 78 79 79 80 80 80 80 79 78 78 76 75 73 70 67 63 58 53 49 45 44 43 44 44 44 43
47 47 47 47 47 47 46 45 45 44 43 43 42 42 42 42 42 42 42 42 43 43 43 44 44 45 45 46 46 47 47 47 48 48 49 50 50 51 52 52 53 53 54 55 56 57 58 60 62 64 66 68 70 71 73 75 76 77 78 79 80 80 80 80 80 79 78 77 76 75 73 71 68 65 61 56 52 47 43 40 39 39 40 40 40 40
Wind_Direction
277 277 278 278 279 279 279 279 280 280 280 280 280 280 280 280 280 280 280 280 280 280 281 281 282 282 283 283 284 284 285 286 286 287 287 288 288 288 289 289 289 289 289 290 290 290 290 290 290 290 290 290 291 291 292 292 293 293 293 293 293 293 293 293 293 294 294 294 294 294 294 294 295 295 295 295 295 295 295 295 294 294 294 294 293 293
277 278 278 278 279 279 279 279 280 280 280 280 280 279 279 279 279 279 279 279 280 280 281 281 282 283 283 284 284 285 285 286 286 287 287 287 288 288 288 288 288 289 289 289 289 289 289 289 289 289 289 290 290 291 291 291 292 292 292 292 292 293 293 293 293 293 293 293 293 294 294 294 294 294 294 294 294 294 294 294 294 294 294 294 293 293
277 278 278 278 278 279 279 279 279 279 279 278 278 278 278 278 278 278 279 279 280 281 281 282 283 283 284 284 285 285 286 286 287 287 287 287 288 288 288 288 288 288 288 288 288 288 288 288 288 288 288 289 289 290 290 291 291 291 292 292 292 292 292 292 292 292 293 293 293 293 293 294 294 294 294 294 294 294 294 294 294 294 294 293 293 293
277 278 278 278 278 278 278 278 278 278 278 277 277 277 278 278 278 279 279 280 280 281 282 283 283 284 284 285 285 286 286 286 287 287 287 287 288 288 288 288 288 288 288 288 288 288 288 288 288 288 288 288 289 289 289 290 290 291 291 291 291 291 292 292 292 292 292 292 292 293 293 293 293 293 293 294 294 293 293 293 293 293 293 293 293 293
277 277 277 277 277 277 277 277 277 277 277 277 277 277 278 278 279 279 280 280 281 282 282 283 284 284 285 285 285 286 286 286 287 287 287 287 288 288 288 288 288 288 288 288 288 288 288 287 287 287 287 287 288 288 289 289 289 290 290 290 291 291 291 291 291 291 291 292 292 292 292 292 293 293 293 293 293 293 293 293 293 293 293 293 293 293
276 276 276 276 276 276 276 276 276 276 276 277 277 277 278 279 279 280 281 281 282 282 283 283 284 284 285 285 286 286 286 286 287 287 287 288 288 288 288 288 288 288 288 288 288 288 287 287 287 287 287 287 287 288 288 288 289 289 289 290 290 290 290 290 290 291 291 291 291 291 291 292 292 292 292 293 293 293 293 292 292 292 292 292 292 292
276 275 275 275 275 275 275 275 275 276 276 277 277 278 278 279 280 280 281 282 282 283 283 283 284 284 285 285 286 286 286 286 287 287 287 288 288 288 288 288 288 288 288 288 288 287 287 287 287 287 287 287 287 287 287 288 288 288 289 289 289 289 289 289 290 290 290 290 290 291 291 291 291 292 292 292 292 292 292 292 291 291 291 291 291 292
274 274 274 274 274 274 274 275 275 276 277 277 278 278 279 279 280 280 281 282 282 283 283 284 284 284 285 285 285 286 286 286 287 287 287 288 288 288 288 288 288 288 288 288 287 287 287 287 287 287 286 286 286 286 287 287 287 287 288 288 288 288 289 289 289 289 289 289 290 290 290 290 291 291 291 291 292 291 291 291 290 290 290 291 291 291
273 273 273 273 274 274 275 275 275 276 277 277 278 278 279 279 280 280 281 281 282 282 283 283 284 284 284 285 285 286 286 286 287 287 287 288 288 288 288 288 288 288 287 287 287 287 287 287 286 286 286 286 286 286 286 286 286 287 287 287 287 288 288 288 288 288 288 289 289 289 289 289 290 290 291 291 291 291 290 290 290 289 290 290 290 290
272 273 273 274 274 274 275 276 276 277 277 277 278 278 279 279 280 280 280 281 281 281 282 283 283 284 284 284 285 285 286 286 287 287 287 287 288 288 288 287 287 287 287 287 287 286 286 286 286 286 286 285 285 285 286 286 286 286 286 286 287 287 287 287 287 287 288 288 288 288 288 289 289 289 290 290 290 290 290 289 289 289 289 289 290 290
272 272 273 274 274 275 275 276 276 277 277 278 278 278 278 279 279 280 280 280 281 281 281 282 283 283 284 284 285 285 286 286 287 287 287 287 287 288 287 287 287 287 287 287 287 286 286 286 286 285 285 285 285 285 285 285 285 285 286 286 286 286 286 286 287 287 287 287 287 287 288 288 288 289 289 289 289 289 289 288 288 288 288 289 289 289
272 273 273 274 274 275 275 276 276 277 277 277 278 278 278 278 279 279 280 281 281 281 282 282 282 283 284 284 285 285 286 286 286 287 287 287 287 288 288 288 288 287 287 287 287 286 286 286 285 285 285 285 285 284 284 284 285 285 285 285 285 285 286 286 286 286 286 286 286 286 287 287 288 288 288 289 289 289 288 288 287 287 287 288 288 288
272 272 273 274 274 275 275 276 276 277 277 277 277 278 278 278 279 279 280 281 281 282 282 283 283 283 284 285 285 286 286 286 287 287 287 288 288 288 288 288 288 288 288 287 287 286 286 286 285 285 284 284 284 284 284 284 284 284 284 285 285 285 285 285 285 285 285 285 285 286 286 287 287 288 288 288 288 288 287 287 287 287 287 287 287 287
272 272 273 273 274 275 275 276 276 276 277 277 277 278 278 278 278 279 280 280 281 282 282 283 283 284 284 285 285 286 286 287 287 287 288 288 289 289 289 289 288 288 288 287 287 286 286 285 285 285 284 284 284 284 284 284 284 284 284 284 284 284 284 284 284 284 284 285 285 285 286 287 287 288 288 288 288 287 287 286 286 286 286 286 287 287
272 272 273 273 274 274 275 275 276 276 276 277 277 277 278 278 279 279 280 280 281 282 282 283 283 284 285 285 285 286 287 287 287 288 288 289 289 289 289 289 289 289 288 287 287 286 286 285 285 284 284 284 284 284 284 284 284 284 284 284 284 284 284 284 284 284 284 284 285 285 286 287 287 287 288 288 287 287 286 286 285 285 285 286 286 286
272 273 273 273 274 274 274 275 275 275 276 276 277 277 278 278 279 279 280 280 281 282 282 283 284 284 285 285 286 286 287 287 288 288 289 289 289 290 290 290 289 289 288 287 287 286 286 285 285 284 284 284 283 284 284 284 284 284 284 284 284 284 284 283 283 284 284 284 285 285 286 286 287 287 287 287 287 286 286 285 285 285 285 285 286 286
272 273 273 273 274 274 274 274 275 275 276 276 276 277 278 278 279 279 280 281 281 282 283 283 284 284 285 285 286 286 287 287 288 288 289 289 290 290 290 290 289 289 288 288 287 286 286 285 285 284 284 283 283 283 283 284 284 284 284 284 284 283 283 283 283 284 284 284 285 285 286 286 287 287 287 287 286 286 285 285 285 285 285 285 286 286
272 273 273 273 273 274 274 274 275 275 275 276 276 277 278 278 279 279 280 281 281 282 283 283 284 284 285 285 286 286 287 287 288 288 289 289 289 290 290 290 289 289 288 288 287 286 286 285 285 284 284 283 283 283 283 283 283 284 284 284 284 284 284 284 284 284 284 285 285 286 286 287 287 287 287 286 286 286 285 285 285 285 285 285 286 286
272 273 273 273 274 274 274 274 275 275 275 276 276 277 278 278 279 279 280 281 281 282 283 283 284 284 285 285 286 286 287 287 288 288 289 289 289 290 290 290 289 289 288 287 287 286 286 285 285 284 284 284 283 283 283 283 283 283 284 284 284 284 284 284 284 284 285 285 285 286 286 286 286 286 286 286 286 286 286 286 285 285 285 286 286 286
272 272 273 273 274 274 274 275 275 275 276 276 277 277 278 278 279 279 280 280 281 282 282 283 283 284 284 285 285 286 287 287 288 288 289 289 289 289 289 289 289 288 288 287 287 286 286 286 285 285 284 284 284 283 283 283 283 283 283 283 284 284 284 284 284 285 285 285 286 286 286 286 286 286 286 286 286 286 286 286 286 286 286 286 286 286
272 272 273 273 274 274 274 275 275 275 276 276 277 277 277 278 279 279 280 280 281 281 282 282 283 284 284 285 285 286 287 287 287 288 288 289 289 289 289 289 288 288 287 287 287 286 286 286 285 285 285 284 284 284 283 283 283 283 283 283 284 284 284 284 285 285 285 285 285 286 286 286 286 286 286 286 286 286 286 286 286 286 286 286 286 286
272 272 273 273 274 274 274 275 275 276 276 276 277 277 277 278 278 279 279 280 280 281 282 282 283 283 284 284 285 285 286 287 287 288 288 288 288 288 289 288 288 287 287 287 287 286 286 286 286 285 285 285 284 284 284 283 283 283 283 284 284 284 285 285 285 285 285 285 285 285 285 285 286 286 286 286 286 286 286 286 286 286 286 286 286 286
272 273 273 273 274 274 275 275 275 276 276 276 277 277 277 278 278 279 279 279 280 281 281 282 283 283 284 284 285 285 286 286 287 288 288 288 288 288 288 288 288 287 287 287 287 287 286 286 286 286 286 285 285 284 284 284 283 283 284 284 284 284 285 285 285 285 285 285 285 285 286 286 286 286 286 286 286 286 287 286 286 286 286 287 287 287
272 273 273 274 274 274 275 275 276 276 276 276 277 277 277 277 278 278 279 279 280 280 281 282 283 283 283 284 284 285 285 286 287 288 288 288 288 289 289 288 288 287 287 287 287 287 286 286 286 286 286 285 285 284 284 284 284 284 284 284 284 284 285 285 285 285 285 285 286 286 286 286 286 286 286 287 287 287 287 287 287 287 287 287 287 288
272 273 273 274 274 275 275 276 276 277 277 277 277 277 277 277 277 278 278 279 280 280 281 282 283 283 283 284 284 285 285 286 287 287 288 288 289 289 289 289 288 288 287 287 287 286 286 286 286 285 285 285 285 285 284 284 284 284 284 284 285 285 285 285 285 285 285 286 286 286 286 286 286 287 287 287 287 287 287 287 287 287 288 288 288 288
272 273 273 274 274 275 276 276 277 277 278 278 277 277 277 278 278 278 279 279 280 281 281 282 282 283 283 283 284 284 285 286 287 287 288 288 289 289 289 289 288 288 287 287 286 286 286 285 285 285 285 285 285 285 285 285 285 285 285 285 285 285 285 285 286 286 286 286 286 286 287 287 287 287 287 287 287 288 288 288 288 288 288 289 289 289
272 273 273 274 275 275 276 277 277 278 278 278 278 278 278 278 278 278 279 279 280 281 281 281 282 282 282 283 283 284 285 286 286 287 288 289 289 289 289 289 289 288 287 287 286 286 285 285 285 284 284 284 285 285 285 285 285 286 286 286 286 286 286 286 286 286 286 287 287 287 287 287 287 288 288 288 288 288 288 288 289 289 289 289 289 289
272 273 273 274 275 276 276 277 277 277 278 278 278 278 278 278 278 278 279 279 280 280 281 281 281 282 282 283 283 284 285 286 287 288 289 289 289 289 289 289 289 288 287 287 286 286 285 285 285 284 284 284 284 285 285 285 286 286 286 286 286 286 287 287 287 287 287 287 287 287 287 287 288 288 288 288 288 289 289 289 289 289 289 289 289 289
273 273 274 274 275 275 276 276 277 277 277 278 278 278 278 278 278 278 278 279 280 280 280 281 281 281 282 283 284 285 286 286 287 288 289 289 289 289 289 289 288 288 287 287 286 286 285 285 285 285 284 284 284 284 284 285 285 286 286 286 287 287 287 287 287 287 287 287 287 287 287 288 288 288 288 289 289 289 289 289 289 289 289 289 289 288
273 274 274 275 275 275 275 276 276 277 277 278 278 278 278 278 278 278 278 279 279 279 280 280 281 281 282 283 284 285 286 287 288 288 289 288 288 288 289 288 288 287 287 287 286 286 285 285 285 285 284 284 284 284 284 284 284 285 285 286 286 286 286 286 286 286 287 287 287 287 288 288 288 288 289 289 289 289 289 289 289 289 289 289 288 288
274 274 275 275 275 275 275 275 275 276 277 277 278 278 278 277 277 277 277 278 279 279 279 280 280 281 282 283 284 285 286 287 288 288 288 288 288 288 288 288 287 287 287 286 285 285 285 285 285 284 284 284 284 284 284 284 284 284 285 285 285 285 286 286 286 286 287 287 287 288 288 288 289 289 289 289 289 289 289 289 289 289 289 289 289 289
275 275 275 275 275 274 274 275 275 275 276 277 277 277 277 277 277 277 277 278 278 279 279 280 280 281 282 283 284 285 286 287 287 288 288 287 287 288 287 287 287 287 286 286 285 285 285 284 284 284 284 284 284 284 284 284 284 284 285 285 285 285 285 285 286 286 287 287 288 288 288 289 289 289 289 289 289 289 289 289 289 289 290 290 290 290
275 275 274 274 274 274 274 274 275 275 276 276 277 277 277 277 277 277 277 277 278 278 279 280 281 282 283 284 285 286 286 287 287 287 287 287 287 287 287 287 287 286 286 286 286 285 285 285 284 284 284 284 284 284 285 285 285 285 285 285 285 285 285 285 285 286 287 287 288 288 288 288 288 289 289 289 289 289 290 290 290 291 291 291 291 291
274 274 274 274 274 274 274 274 274 275 275 276 276 277 277 277 277 277 277 277 278 279 279 280 282 283 284 285 286 286 286 287 287 287 287 287 287 287 287 287 287 286 286 286 286 286 286 285 285 285 285 285 285 285 285 285 285 285 285 285 285 285 284 285 285 285 286 286 287 287 287 288 288 288 289 289 290 290 291 291 292 292 292 292 292 292
273 273 273 273 273 273 273 273 274 274 275 275 276 276 276 276 276 277 277 277 278 279 280 281 283 284 285 286 286 286 286 286 287 287 287 287 287 287 287 287 286 286 286 286 286 286 286 286 286 286 286 286 285 285 285 285 285 285 285 285 284 284 284 284 285 285 285 286 286 287 287 288 288 289 289 290 291 291 292 292 292 293 293 292 292 292
272 272 272 272 272 272 272 273 273 273 274 274 275 275 275 276 276 276 276 277 278 279 281 282 283 284 285 285 285 285 286 286 286 286 286 286 286 286 286 286 286 286 286 286 286 286 286 286 286 286 286 286 285 285 285 285 285 285 285 284 284 284 284 285 285 285 286 286 287 287 288 288 289 290 290 291 292 292 292 293 293 293 293 293 293 293
271 271 271 271 271 271 272 272 272 272 273 273 274 274 274 274 275 275 276 277 278 280 281 282 283 284 284 284 284 284 285 285 285 285 285 285 285 285 285 285 285 285 285 285 285 285 285 285 285 285 285 285 285 285 285 285 285 285 285 285 285 285 286 286 286 286 287 287 288 288 289 289 290 291 291 292 292 293 293 293 293 293 294 294 294 294
271 271 271 271 271 271 271 272 272 272 272 273 273 273 273 274 274 275 276 278 279 280 281 282 283 283 283 283 283 283 284 284 284 285 285 285 285 284 284 284 284 284 285 285 285 285 285 285 285 285 285 285 285 286 286 286 286 286 286 286 287 287 287 287 288 288 288 289 289 290 290 291 291 292 292 293 293 293 294 294 294 294 294 294 294 295
271 271 271 271 271 271 271 272 272 272 272 272 273 273 273 274 275 276 277 279 280 281 282 282 283 283 283 283 283 283 283 284 284 284 284 284 284 284 284 285 285 285 285 285 286 286 286 286 286 286 287 287 287 287 287 287 287 287 287 287 288 288 288 289 289 290 290 290 291 291 291 292 292 293 293 294 294 294 295 295 295 295 295 295 295 295
270 271 271 271 271 271 271 272 272 272 272 273 273 274 275 276 277 278 279 281 281 282 282 282 283 283 283 283 283 284 284 284 284 284 284 284 285 285 285 286 286 287 287 287 287 288 288 288 288 288 288 288 289 289 289 289 289 289 288 289 289 289 289 290 291 291 291 291 292 292 293 293 293 294 294 295 295 295 295 295 295 296 296 296 296 296
270 270 270 270 271 271 271 271 272 272 273 273 274 275 276 277 279 280 281 282 282 282 282 282 283 283 283 284 284 284 284 284 285 285 285 285 286 287 287 288 288 288 288 289 289 289 289 290 290 290 290 290 290 290 290 290 290 290 290 290 290 290 290 291 292 292 292 293 293 293 294 294 294 295 295 295 296 296 296 296 296 296 296 296 296 296
269 269 269 269 270 270 270 271 271 272 273 274 275 276 278 279 280 281 281 282 282 282 282 282 283 283 283 284 284 284 284 285 285 286 286 287 288 288 289 289 289 289 289 289 289 290 290 290 290 291 291 291 291 291 291 291 291 291 291 291 291 291 292 292 293 293 294 294 294 295 295 295 296 296 296 296 297 297 297 297 297 297 297 297 296 296
268 268 268 269 269 269 270 271 271 272 274 275 276 277 279 280 280 281 281 281 281 281 282 282 282 283 283 284 284 285 285 285 286 286 287 288 288 289 289 289 289 288 289 289 289 290 290 290 290 290 291 291 291 292 292 292 292 292 292 292 293 293 294 294 294 294 295 295 296 296 296 296 297 297 297 297 297 298 298 298 298 298 297 297 296 296
267 267 268 268 269 269 270 271 272 273 275 276 277 278 279 279 280 280 280 280 280 281 281 282 282 283 283 284 284 285 286 286 287 287 288 288 288 288 288 288 288 288 288 289 289 290 290 290 290 291 291 292 292 292 292 292 293 293 293 293 294 295 295 295 296 296 296 296 297 297 297 297 297 298 298 298 298 298 299 299 298 298 297 297 296 295
267 267 267 268 269 270 271 272 273 275 276 277 277 278 278 279 279 279 279 279 279 280 280 281 282 283 283 284 285 285 286 286 287 288 288 287 287 287 287 288 288 288 289 289 290 290 291 291 291 292 292 293 293 294 294 294 294 294 294 295 296 296 297 297 297 297 297 297 297 298 298 298 298 299 299 299 299 299 299 299 298 298 297 296 295 294
266 267 268 269 270 271 272 273 275 275 276 277 277 277 278 278 278 278 278 278 279 279 280 281 282 283 284 284 284 285 285 286 286 286 287 287 287 287 288 288 289 289 290 290 291 291 292 292 293 294 294 295 295 295 295 295 296 296 296 297 297 298 298 298 298 298 298 298 298 299 299 299 299 299 300 300 300 300 299 299 298 297 295 294 293 292
267 268 269 270 271 273 274 274 275 276 276 277 277 277 277 277 277 277 278 278 279 280 280 281 282 283 283 284 284 285 285 285 285 286 286 286 287 288 288 289 289 290 291 292 292 293 293 294 295 295 296 296 296 296 296 297 297 298 298 298 299 299 299 299 299 299 299 299 299 300 300 300 300 300 300 300 300 300 299 298 297 295 294 293 292 292
268 270 271 272 273 274 274 275 275 276 276 276 276 277 277 277 277 278 278 279 280 280 281 282 283 283 283 284 284 284 284 285 285 286 286 287 288 288 289 289 290 291 292 292 293 294 295 296 296 297 297 297 298 298 298 298 299 299 299 299 299 299 299 299 299 299 300 300 300 300 300 301 301 300 300 300 300 299 298 297 295 294 293 292 291 291
270 271 272 273 273 274 275 275 276 276 276 276 276 276 276 277 277 278 279 280 280 281 282 282 283 283 283 283 284 284 284 285 286 286 287 287 288 289 289 290 291 292 292 293 294 295 296 297 297 298 299 299 299 299 299 299 300 300 300 300 300 300 300 300 300 300 301 301 301 301 301 301 301 301 300 300 299 298 296 295 294 293 292 291 291 292
271 272 272 273 274 274 275 275 275 275 275 275 276 276 276 277 278 278 279 280 281 281 282 282 283 283 283 284 284 285 285 286 286 287 287 288 289 289 290 291 292 292 293 294 295 296 297 298 299 299 300 300 300 300 300 300 300 300 300 300 300 300 301 301 301 301 301 301 301 301 301 301 301 301 300 299 298 297 295 294 293 292 292 291 291 292
271 272 273 273 274 274 274 275 275 275 275 275 275 276 277 278 278 279 279 280 280 281 281 282 282 283 284 284 285 286 286 287 287 288 288 289 290 290 291 292 292 293 294 295 296 297 298 299 299 300 300 300 300 300 300 300 300 300 300 301 301 301 301 301 301 302 302 302 302 302 301 301 301 300 299 298 297 295 294 293 292 292 292 291 292 292
Height
5675 5674 5673 5673 5674 5674 5672 5672 5672 5672 5672 5671 5670 5670 5670 5670 5669 5669 5669 5669 5668 5667 5667 5667 5666 5666 5666 5665 5665 5665 5664 5664 5663 5663 5662 5661 5661 5660 5660 5659 5658 5657 5657 5656 5655 5655 5654 5653 5652 5651 5650 5650 5649 5648 5647 5646 5646 5645 5644 5643 5643 5642 5641 5641 5640 5639 5638 5638 5637 5636 5635 5635 5634 5633 5633 5632 5631 5630 5629 5629 5628 5627 5626 5625 5625 5624
5672 5671 5670 5669 5670 5670 5669 5668 5668 5669 5669 5667 5667 5666 5667 5666 5666 5665 5665 5665 5665 5664 5664 5663 5663 5663 5662 5662 5662 5661 5661 5660 5660 5659 5658 5658 5657 5656 5656 5655 5654 5654 5653 5652 5651 5651 5650 5649 5648 5647 5647 5646 5645 5645 5644 5643 5642 5641 5640 5640 5639 5638 5638 5637 5636 5635 5635 5634 5633 5633 5632 5631 5630 5630 5629 5628 5627 5626 5625 5625 5624 5623 5622 5621 5621 5620
5668 5668 5666 5666 5666 5666 5665 5664 5664 5665 5665 5664 5664 5663 5663 5663 5662 5662 5662 5662 5662 5661 5661 5660 5660 5659 5659 5658 5658 5658 5657 5656 5656 5655 5655 5654 5653 5653 5652 5651 5650 5650 5649 5649 5648 5647 5646 5645 5645 5644 5643 5642 5641 5641 5640 5639 5638 5638 5637 5636 5635 5635 5634 5633 5632 5632 5631 5630 5630 5629 5628 5627 5626 5626 5625 5624 5623 5622 5622 5621 5620 5619 5618 5617 5616 5616
5665 5664 5663 5662 5662 5662 5662 5661 5661 5661 5661 5660 5660 5660 5660 5659 5659 5659 5659 5659 5658 5658 5657 5657 5656 5656 5655 5655 5655 5654 5654 5653 5652 5652 5651 5650 5650 5649 5648 5647 5646 5646 5645 5645 5644 5643 5642 5641 5641 5640 5639 5638 5638 5637 5636 5635 5635 5634 5633 5632 5631 5631 5630 5629 5629 5628 5627 5626 5625 5625 5624 5623 5623 5622 5621 5620 5619 5618 5618 5617 5616 5615 5614 5613 5612 5611
5661 5661 5660 5659 5659 5659 5658 5658 5658 5657 5657 5657 5657 5657 5656 5656 5656 5656 5655 5655 5655 5655 5654 5654 5653 5653 5652 5651 5651 5650 5650 5649 5649 5648 5647 5646 5645 5645 5644 5643 5642 5642 5641 5640 5640 5639 5638 5638 5637 5636 5635 5635 5634 5633 5632 5631 5630 5630 5629 5628 5627 5627 5626 5625 5625 5624 5623 5622 5621 5621 5620 5619 5619 5618 5617 5616 5615 5614 5614 5613 5612 5611 5610 5609 5608 5607
5657 5657 5656 5656 5655 5655 5655 5655 5655 5655 5654 5654 5654 5654 5653 5653 5653 5652 5652 5652 5652 5651 5651 5650 5650 5649 5648 5648 5647 5647 5646 5645 5645 5644 5643 5642 5641 5641 5640 5639 5638 5638 5637 5636 5636 5635 5635 5634 5633 5632 5631 5631 5630 5629 5628 5627 5627 5626 5625 5624 5623 5623 5622 5621 5620 5620 5619 5618 5617 5617 5616 5615 5614 5614 5613 5612 5611 5610 5609 5608 5608 5607 5606 5605 5604 5603
5653 5653 5653 5653 5652 5652 5652 5652 5651 5651 5651 5651 5650 5650 5650 5650 5650 5649 5649 5649 5648 5648 5647 5647 5646 5645 5645 5644 5644 5643 5642 5641 5641 5640 5639 5639 5638 5637 5636 5635 5634 5634 5633 5632 5632 5631 5630 5630 5629 5628 5628 5627 5626 5625 5624 5623 5623 5622 5621 5620 5619 5619 5618 5617 5616 5615 5615 5614 5613 5612 5612 5611 5610 5609 5609 5608 5607 5606 5605 5604 5603 5602 5602 5601 5600 5599
5649 5650 5650 5650 5649 5649 5649 5648 5648 5648 5648 5648 5647 5647 5647 5647 5647 5646 5646 5645 5645 5644 5644 5643 5642 5642 5641 5641 5640 5639 5638 5637 5637 5636 5635 5635 5634 5633 5632 5631 5630 5630 5629 5628 5628 5627 5626 5626 5625 5624 5624 5623 5622 5621 5620 5619 5619 5618 5617 5616 5615 5615 5614 5613 5612 5611 5611 5610 5609 5608 5607 5606 5606 5605 5604 5603 5603 5602 5601 5600 5599 5598 5597 5597 5596 5595
5646 5646 5646 5646 5646 5646 5645 5645 5645 5645 5645 5645 5644 5644 5644 5644 5644 5643 5643 5642 5641 5641 5640 5640 5639 5638 5638 5637 5636 5635 5634 5634 5633 5632 5631 5630 5630 5629 5628 5627 5626 5625 5625 5624 5624 5623 5622 5622 5621 5620 5620 5619 5618 5617 5616 5615 5614 5614 5613 5612 5611 5610 5610 5609 5608 5607 5606 5605 5605 5604 5603 5602 5601 5600 5600 5599 5598 5597 5596 5596 5595 5594 5593 5592 5591 5590
5643 5643 5643 5643 5643 5643 5643 5642 5642 5642 5642 5641 5641 5640 5640 5640 5640 5640 5639 5639 5638 5638 5637 5636 5635 5635 5634 5633 5632 5632 5630 5630 5629 5628 5628 5626 5625 5625 5624 5623 5622 5621 5621 5620 5619 5619 5618 5618 5617 5616 5615 5614 5613 5613 5612 5611 5610 5609 5609 5608 5607 5606 5605 5605 5604 5603 5602 5601 5600 5599 5598 5598 5597 5596 5595 5594 5594 5593 5592 5591 5590 5590 5589 5588 5587 5586
5640 5640 5640 5640 5639 5640 5640 5639 5638 5638 5638 5638 5637 5637 5637 5637 5636 5636 5635 5635 5635 5635 5634 5633 5632 5631 5630 5629 5629 5628 5627 5626 5625 5624 5624 5623 5622 5621 5620 5619 5618 5617 5616 5616 5615 5615 5614 5614 5613 5612 5611 5610 5609 5608 5607 5607 5606 5605 5604 5604 5603 5602 5601 5600 5600 5599 5598 5597 5596 5595 5594 5593 5592 5591 5590 5590 5589 5588 5587 5587 5586 5585 5585 5584 5583 5582
5636 5636 5636 5636 5636 5636 5636 5635 5635 5635 5635 5634 5634 5633 5633 5633 5633 5632 5631 5630 5630 5630 5630 5629 5628 5627 5626 5625 5625 5624 5623 5622 5621 5620 5619 5619 5618 5617 5616 5615 5614 5613 5612 5611 5611 5610 5610 5609 5609 5608 5607 5606 5605 5604 5603 5602 5601 5601 5600 5599 5599 5598 5597 5596 5595 5594 5593 5592 5591 5590 5589 5588 5587 5587 5586 5585 5584 5583 5583 5582 5581 5580 5580 5579 5578 5577
5633 5633 5633 5632 5632 5632 5632 5632 5631 5631 5631 5630 5630 5629 5629 5629 5629 5629 5628 5627 5626 5626 5626 5625 5624 5623 5623 5622 5621 5620 5619 5618 5617 5616 5615 5614 5614 5613 5612 5610 5610 5609 5608 5607 5606 5605 5605 5605 5604 5603 5602 5601 5600 5600 5599 5598 5597 5596 5595 5595 5594 5593 5592 5591 5590 5589 5588 5587 5586 5585 5585 5584 5583 5582 5581 5580 5579 5579 5578 5577 5576 5576 5575 5575 5574 5573
5629 5629 5629 5629 5628 5628 5628 5628 5627 5627 5627 5627 5626 5626 5625 5625 5625 5625 5625 5624 5623 5622 5622 5620 5620 5619 5618 5618 5617 5616 5615 5614 5613 5612 5611 5610 5609 5609 5608 5606 5605 5605 5604 5602 5601 5600 5600 5600 5599 5598 5598 5597 5596 5595 5594 5593 5592 5592 5591 5590 5590 5589 5588 5587 5586 5585 5584 5583 5582 5581 5580 5579 5578 5577 5576 5575 5575 5574 5573 5572 5572 5571 5570 5570 5569 5568
5625 5625 5625 5625 5625 5624 5624 5624 5623 5623 5623 5623 5623 5622 5622 5621 5621 5621 5620 5620 5619 5619 5618 5617 5616 5615 5614 5614 5613 5612 5610 5610 5609 5608 5607 5606 5605 5605 5604 5602 5601 5600 5599 5598 5597 5596 5596 5595 5594 5594 5593 5592 5591 5590 5590 5589 5588 5587 5586 5585 5585 5584 5583 5582 5581 5580 5579 5578 5577 5576 5575 5574 5573 5572 5571 5570 5570 5569 5568 5567 5567 5566 5565 5565 5564 5563
5622 5622 5621 5621 5620 5620 5620 5620 5620 5619 5619 5619 5619 5618 5618 5617 5617 5617 5616 5615 5615 5614 5614 5613 5612 5611 5610 5610 5609 5608 5607 5605 5605 5604 5603 5601 5600 5600 5600 5598 5596 5595 5594 5593 5592 5591 5591 5590 5590 5589 5588 5587 5587 5586 5585 5584 5583 5582 5582 5581 5580 5579 5578 5577 5576 5575 5574 5573 5572 5571 5570 5569 5568 5567 5566 5565 5565 5564 5563 5562 5562 5561 5560 5560 5559 5558
5618 5618 5617 5617 5616 5616 5616 5616 5616 5615 5615 5615 5615 5614 5614 5614 5613 5613 5612 5612 5611 5610 5609 5608 5607 5606 5605 5605 5605 5604 5603 5601 5600 5600 5599 5597 5596 5595 5595 5593 5592 5590 5589 5588 5587 5586 5586 5585 5585 5584 5584 5583 5582 5581 5580 5580 5579 5578 5577 5576 5575 5574 5573 5572 5571 5570 5569 5568 5567 5566 5565 5564 5563 5562 5561 5560 5560 5559 5558 5557 5557 5556 5555 5555 5554 5553
5614 5614 5613 5613 5612 5612 5612 5612 5611 5611 5611 5611 5610 5610 5610 5610 5609 5609 5608 5607 5607 5606 5605 5604 5603 5602 5601 5600 5599 5600 5600 5598 5596 5595 5595 5593 5591 5590 5590 5589 5587 5585 5585 5583 5582 5581 5581 5580 5580 5579 5579 5578 5577 5576 5576 5575 5574 5573 5572 5571 5570 5569 5568 5567 5566 5565 5564 5563 5562 5561 5560 5559 5558 5557 5556 5555 5555 5554 5553 5552 5551 5551 5550 5549 5549 5548
5610 5610 5609 5608 5608 5608 5608 5607 5607 5607 5607 5606 5606 5606 5605 5605 5605 5605 5604 5603 5602 5601 5600 5600 5599 5598 5597 5595 5594 5594 5595 5594 5592 5591 5590 5589 5587 5586 5585 5584 5583 5581 5580 5578 5577 5576 5576 5575 5575 5574 5574 5573 5572 5572 5571 5570 5569 5568 5567 5566 5565 5564 5563 5562 5561 5560 5559 5558 5557 5556 5555 5554 5553 5552 5551 5550 5549 5549 5548 5547 5546 5545 5545 5544 5543 5542
5605 5605 5605 5604 5604 5603 5603 5603 5603 5603 5602 5602 5602 5601 5601 5600 5600 5600 5599 5599 5598 5597 5596 5595 5594 5593 5593 5591 5590 5590 5590 5589 5588 5587 5586 5585 5583 5581 5580 5580 5578 5576 5575 5574 5572 5572 5571 5570 5570 5570 5569 5568 5567 5566 5565 5565 5564 5563 5561 5560 5559 5558 5557 5556 5555 5555 5553 5552 5551 5550 5550 5549 5547 5546 5545 5545 5544 5543 5542 5541 5541 5540 5539 5538 5538 5537
5601 5600 5600 5600 5600 5599 5599 5599 5598 5598 5598 5597 5597 5597 5596 5596 5595 5595 5595 5594 5594 5593 5592 5591 5590 5589 5589 5587 5586 5585 5585 5585 5584 5583 5582 5581 5579 5577 5576 5575 5574 5572 5570 5569 5568 5567 5566 5565 5565 5564 5564 5563 5562 5561 5560 5560 5558 5557 5556 5555 5554 5553 5552 5551 5550 5549 5548 5547 5546 5545 5544 5543 5542 5541 5540 5539 5538 5538 5537 5536 5535 5534 5534 5533 5532 5531
5597 5596 5596 5596 5595 5595 5595 5594 5594 5594 5594 5593 5593 5592 5592 5591 5591 5590 5590 5590 5589 5588 5587 5586 5585 5585 5584 5583 5581 5580 5580 5580 5579 5578 5578 5576 5575 5573 5572 5570 5569 5568 5566 5565 5563 5562 5562 5561 5560 5559 5559 5558 5557 5556 5555 5554 5553 5552 5551 5550 5549 5548 5546 5545 5544 5543 5542 5541 5540 5539 5538 5537 5536 5535 5535 5534 5533 5532 5531 5530 5530 5529 5528 5527 5526 5525
5592 5591 5591 5591 5591 5591 5590 5590 5589 5589 5589 5589 5588 5588 5587 5587 5586 5586 5585 5585 5585 5584 5583 5582 5581 5580 5579 5578 5577 5576 5575 5575 5574 5573 5573 5571 5570 5568 5567 5566 5565 5563 5562 5560 5559 5558 5557 5556 5555 5554 5553 5552 5551 5551 5550 5549 5548 5547 5545 5545 5543 5542 5541 5540 5539 5537 5536 5535 5534 5533 5532 5531 5530 5530 5529 5528 5527 5526 5525 5525 5524 5523 5522 5521 5520 5520
5587 5587 5586 5586 5586 5586 5585 5585 5585 5585 5585 5584 5584 5583 5583 5582 5582 5581 5580 5580 5580 5579 5578 5577 5576 5575 5575 5574 5572 5571 5570 5570 5569 5568 5568 5567 5565 5564 5563 5562 5561 5559 5558 5556 5555 5554 5552 5551 5550 5549 5548 5547 5546 5545 5544 5543 5542 5541 5540 5539 5538 5537 5535 5534 5533 5532 5530 5529 5528 5527 5526 5525 5525 5524 5523 5522 5521 5520 5520 5519 5518 5517 5516 5515 5515 5514
5582 5582 5582 5582 5581 5581 5581 5580 5580 5580 5580 5580 5579 5579 5578 5578 5577 5576 5576 5575 5575 5574 5574 5573 5572 5571 5570 5569 5568 5566 5565 5565 5564 5563 5562 5561 5560 5559 5558 5557 5556 5555 5554 5552 5551 5550 5549 5547 5545 5544 5542 5541 5540 5540 5539 5538 5537 5535 5535 5533 5532 5531 5530 5528 5527 5526 5525 5523 5522 5521 5520 5520 5519 5518 5517 5516 5515 5515 5514 5513 5512 5511 5510 5510 5509 5508
5578 5578 5577 5577 5577 5576 5576 5576 5575 5575 5575 5575 5574 5574 5573 5573 5572 5572 5571 5570 5570 5570 5569 5568 5567 5566 5565 5565 5563 5562 5561 5560 5559 5558 5558 5556 5555 5554 5553 5553 5552 5551 5550 5548 5547 5546 5545 5543 5541 5539 5538 5536 5535 5534 5533 5532 5531 5530 5529 5528 5526 5525 5524 5523 5521 5520 5519 5518 5516 5515 5515 5514 5513 5512 5511 5510 5510 5509 5508 5507 5506 5505 5504 5503 5503 5502
5574 5573 5573 5572 5572 5572 5571 5571 5571 5570 5570 5570 5569 5569 5568 5568 5568 5567 5566 5566 5565 5565 5564 5563 5562 5561 5560 5560 5559 5557 5556 5555 5554 5553 5553 5552 5550 5549 5548 5548 5547 5546 5545 5544 5542 5541 5540 5538 5537 5535 5534 5532 5530 5529 5528 5526 5525 5524 5523 5522 5521 5520 5518 5517 5516 5515 5513 5512 5511 5510 5509 5508 5507 5506 5505 5505 5504 5503 5501 5500 5500 5499 5498 5497 5496 5495
5569 5569 5568 5568 5567 5567 5567 5566 5566 5565 5565 5565 5564 5564 5564 5563 5563 5562 5561 5561 5561 5560 5559 5558 5557 5556 5555 5555 5554 5553 5552 5550 5549 5548 5548 5547 5545 5544 5543 5543 5542 5541 5540 5539 5537 5536 5535 5534 5532 5531 5530 5528 5526 5525 5523 5522 5521 5519 5518 5517 5515 5514 5512 5511 5510 5509 5508 5506 5505 5504 5503 5502 5501 5500 5500 5499 5498 5497 5495 5495 5493 5493 5492 5491 5490 5489
5564 5564 5563 5563 5563 5562 5562 5561 5561 5560 5560 5559 5559 5559 5559 5559 5558 5557 5556 5556 5556 5555 5553 5553 5552 5551 5550 5549 5549 5548 5547 5545 5544 5544 5543 5542 5540 5539 5539 5538 5536 5535 5535 5534 5532 5531 5531 5529 5528 5527 5525 5524 5523 5521 5520 5518 5517 5515 5514 5512 5510 5508 5507 5506 5505 5503 5502 5501 5500 5499 5498 5497 5496 5495 5494 5493 5492 5490 5490 5488 5487 5486 5485 5485 5484 5483
5559 5559 5558 5558 5558 5557 5557 5556 5556 5555 5555 5554 5554 5554 5554 5554 5553 5552 5551 5551 5550 5550 5548 5548 5547 5546 5545 5545 5544 5542 5541 5540 5540 5539 5538 5537 5535 5534 5534 5533 5531 5530 5530 5529 5528 5526 5526 5525 5524 5523 5521 5520 5519 5518 5516 5515 5514 5512 5510 5508 5506 5504 5502 5500 5499 5498 5497 5496 5495 5494 5493 5491 5490 5489 5488 5487 5486 5485 5483 5482 5481 5480 5479 5478 5477 5476
5554 5554 5553 5553 5552 5552 5552 5551 5550 5550 5550 5549 5549 5548 5548 5548 5548 5547 5546 5546 5545 5545 5544 5543 5542 5541 5541 5540 5539 5538 5536 5535 5535 5534 5534 5532 5530 5529 5529 5528 5526 5525 5525 5524 5523 5522 5521 5520 5520 5518 5517 5516 5515 5513 5512 5511 5510 5509 5507 5505 5503 5500 5498 5495 5494 5493 5492 5491 5490 5489 5487 5486 5485 5484 5483 5481 5480 5479 5477 5476 5475 5473 5472 5471 5470 5470
5548 5548 5548 5547 5547 5547 5546 5546 5545 5545 5545 5544 5544 5543 5543 5543 5542 5542 5541 5541 5540 5540 5539 5538 5537 5536 5536 5535 5535 5533 5531 5530 5529 5529 5529 5527 5525 5524 5524 5523 5521 5520 5519 5519 5519 5517 5516 5515 5515 5514 5513 5511 5510 5509 5508 5507 5505 5504 5503 5501 5499 5497 5494 5492 5490 5488 5487 5486 5485 5484 5482 5481 5480 5478 5477 5476 5474 5473 5471 5470 5468 5466 5465 5464 5463 5462
5543 5543 5543 5542 5542 5542 5541 5541 5540 5540 5540 5539 5539 5538 5538 5538 5537 5537 5536 5536 5535 5535 5534 5533 5532 5532 5531 5530 5530 5528 5526 5525 5524 5523 5523 5522 5520 5519 5519 5518 5516 5515 5514 5514 5513 5513 5512 5510 5510 5510 5508 5507 5506 5505 5503 5502 5501 5500 5499 5497 5495 5493 5490 5488 5486 5485 5483 5482 5480 5479 5478 5476 5475 5473 5472 5470 5469 5467 5465 5463 5461 5460 5458 5457 5456 5455
5538 5538 5537 5537 5537 5537 5536 5536 5535 5535 5535 5534 5534 5533 5533 5533 5532 5532 5531 5530 5530 5529 5529 5528 5527 5527 5526 5525 5524 5523 5521 5520 5519 5518 5518 5517 5515 5514 5513 5513 5511 5510 5510 5509 5508 5507 5507 5506 5505 5505 5503 5502 5501 5500 5499 5497 5496 5495 5494 5492 5490 5488 5486 5484 5483 5481 5479 5478 5476 5475 5473 5471 5470 5468 5466 5465 5463 5461 5459 5457 5455 5453 5451 5450 5448 5447
5533 5533 5532 5532 5532 5532 5531 5531 5530 5530 5530 5529 5529 5529 5528 5528 5527 5527 5526 5525 5525 5524 5524 5523 5522 5522 5521 5520 5519 5517 5516 5514 5514 5513 5512 5511 5510 5509 5509 5508 5507 5506 5505 5503 5503 5502 5501 5501 5500 5500 5499 5498 5497 5496 5495 5493 5492 5490 5489 5488 5486 5484 5481 5480 5478 5477 5475 5474 5472 5470 5468 5466 5465 5463 5461 5459 5457 5455 5453 5451 5449 5446 5444 5442 5440 5439
5528 5528 5528 5527 5527 5527 5526 5526 5526 5525 5525 5525 5524 5524 5524 5523 5522 5522 5521 5521 5520 5520 5519 5518 5518 5517 5516 5515 5514 5512 5510 5509 5508 5508 5507 5506 5506 5505 5504 5503 5502 5501 5500 5499 5498 5498 5497 5496 5495 5495 5494 5493 5492 5491 5490 5489 5487 5486 5484 5482 5481 5479 5477 5475 5473 5472 5470 5469 5467 5465 5463 5461 5459 5457 5455 5454 5452 5450 5447 5445 5443 5440 5437 5435 5433 5431
5523 5523 5522 5522 5522 5522 5521 5521 5521 5521 5520 5520 5520 5519 5519 5518 5518 5517 5517 5516 5516 5515 5515 5514 5513 5512 5511 5510 5509 5508 5506 5505 5504 5503 5502 5501 5501 5500 5500 5498 5497 5497 5496 5495 5494 5493 5493 5492 5491 5490 5490 5489 5488 5486 5485 5484 5483 5481 5479 5477 5475 5473 5471 5469 5468 5466 5465 5463 5462 5460 5458 5456 5454 5452 5450 5448 5446 5444 5441 5439 5436 5434 5431 5428 5426 5424
5518 5517 5517 5517 5517 5517 5517 5516 5516 5516 5516 5515 5515 5515 5514 5514 5513 5513 5512 5512 5511 5511 5510 5510 5509 5508 5507 5506 5505 5503 5502 5500 5499 5498 5497 5497 5496 5496 5495 5494 5493 5492 5491 5490 5490 5489 5488 5487 5486 5485 5485 5484 5483 5482 5481 5480 5478 5476 5474 5472 5470 5468 5466 5464 5462 5461 5460 5458 5456 5454 5453 5451 5449 5447 5445 5443 5440 5438 5435 5432 5430 5427 5424 5421 5419 5416
5513 5512 5512 5512 5512 5512 5512 5511 5511 5511 5511 5511 5510 5510 5509 5509 5508 5508 5508 5507 5507 5506 5505 5505 5504 5503 5502 5501 5500 5498 5497 5496 5495 5494 5493 5492 5491 5491 5490 5489 5488 5487 5486 5486 5485 5484 5483 5482 5481 5480 5480 5479 5478 5477 5476 5474 5473 5470 5469 5467 5465 5463 5461 5459 5457 5455 5454 5452 5450 5449 5447 5445 5443 5441 5439 5437 5434 5432 5429 5425 5423 5420 5417 5414 5411 5409
5508 5508 5508 5507 5507 5507 5507 5506 5506 5506 5506 5505 5505 5505 5505 5504 5504 5503 5503 5502 5502 5501 5500 5499 5498 5497 5496 5495 5494 5493 5492 5491 5490 5489 5488 5487 5487 5486 5485 5484 5483 5482 5481 5480 5480 5479 5478 5477 5476 5475 5474 5473 5472 5471 5470 5469 5467 5465 5463 5462 5460 5459 5457 5455 5452 5450 5448 5447 5445 5443 5441 5439 5438 5435 5433 5430 5428 5425 5422 5419 5416 5413 5410 5407 5404 5401
5504 5504 5503 5503 5503 5503 5502 5502 5502 5501 5501 5501 5500 5500 5500 5500 5499 5499 5498 5497 5496 5496 5495 5494 5494 5492 5491 5490 5489 5488 5487 5486 5485 5485 5484 5483 5482 5481 5480 5479 5478 5477 5476 5475 5475 5474 5473 5472 5470 5469 5469 5468 5467 5466 5465 5463 5461 5459 5457 5456 5455 5454 5452 5450 5447 5445 5442 5441 5439 5438 5435 5433 5431 5429 5427 5424 5421 5418 5415 5412 5409 5405 5402 5399 5396 5394
5500 5499 5499 5499 5499 5499 5498 5498 5498 5497 5497 5497 5496 5496 5495 5495 5495 5494 5493 5492 5492 5491 5490 5490 5489 5488 5487 5485 5484 5483 5482 5481 5480 5480 5479 5478 5477 5476 5475 5475 5474 5473 5472 5471 5470 5469 5468 5467 5466 5465 5464 5463 5462 5460 5459 5457 5455 5453 5451 5450 5449 5448 5447 5445 5442 5440 5437 5435 5433 5431 5429 5427 5425 5423 5420 5417 5414 5410 5407 5404 5401 5398 5395 5391 5388 5386
5495 5495 5495 5495 5495 5494 5494 5494 5494 5493 5493 5493 5492 5491 5491 5491 5490 5490 5489 5488 5487 5486 5486 5485 5485 5484 5483 5481 5480 5478 5477 5476 5476 5475 5474 5473 5472 5472 5471 5470 5469 5468 5468 5467 5466 5465 5463 5463 5462 5460 5459 5458 5457 5455 5454 5452 5450 5448 5446 5444 5443 5442 5440 5439 5436 5434 5431 5429 5426 5424 5422 5420 5418 5416 5413 5410 5407 5404 5400 5397 5393 5390 5387 5384 5380 5378
5491 5491 5491 5491 5491 5490 5490 5490 5490 5489 5489 5489 5488 5487 5487 5486 5486 5485 5485 5484 5483 5482 5482 5481 5480 5480 5479 5477 5476 5474 5473 5472 5471 5470 5470 5469 5468 5467 5467 5466 5465 5464 5463 5463 5462 5460 5459 5458 5457 5455 5454 5453 5451 5450 5448 5446 5444 5442 5440 5439 5437 5436 5434 5432 5430 5428 5425 5423 5420 5418 5415 5413 5411 5408 5406 5403 5400 5396 5393 5390 5386 5382 5379 5376 5373 5371
5487 5487 5487 5487 5487 5487 5486 5486 5486 5485 5485 5485 5484 5483 5483 5482 5482 5481 5480 5480 5479 5478 5478 5477 5476 5475 5474 5473 5472 5471 5469 5468 5467 5466 5465 5465 5464 5463 5462 5461 5460 5459 5459 5458 5457 5456 5455 5453 5452 5450 5449 5448 5446 5445 5442 5440 5438 5437 5435 5434 5432 5430 5428 5426 5424 5421 5419 5416 5414 5411 5409 5406 5404 5401 5399 5396 5393 5390 5386 5383 5379 5375 5372 5369 5366 5364
5484 5484 5484 5483 5483 5483 5483 5482 5482 5481 5481 5480 5480 5479 5479 5478 5478 5477 5476 5476 5475 5475 5474 5473 5473 5472 5470 5469 5468 5467 5466 5465 5463 5462 5461 5460 5460 5459 5458 5457 5456 5455 5454 5452 5451 5450 5450 5449 5447 5445 5444 5442 5440 5439 5437 5435 5432 5430 5429 5428 5426 5424 5421 5419 5416 5414 5412 5410 5407 5404 5401 5399 5396 5394 5392 5389 5386 5383 5380 5376 5373 5369 5366 5363 5361 5359
5480 5480 5480 5480 5480 5479 5479 5478 5478 5478 5477 5476 5476 5475 5475 5474 5473 5473 5472 5472 5471 5470 5470 5469 5469 5468 5466 5465 5465 5464 5462 5461 5460 5459 5458 5456 5455 5455 5454 5453 5451 5450 5449 5448 5447 5445 5444 5443 5442 5440 5439 5437 5435 5432 5430 5429 5426 5424 5423 5421 5420 5418 5415 5412 5410 5407 5405 5402 5400 5397 5394 5392 5389 5387 5385 5382 5380 5377 5373 5370 5366 5363 5360 5358 5356 5354
5476 5476 5476 5476 5475 5475 5475 5474 5474 5474 5473 5472 5471 5471 5470 5470 5470 5469 5468 5468 5467 5466 5466 5465 5464 5463 5462 5461 5460 5460 5459 5458 5456 5455 5454 5453 5451 5450 5449 5448 5447 5446 5445 5444 5442 5441 5440 5438 5437 5435 5433 5431 5429 5426 5424 5422 5420 5418 5416 5415 5413 5411 5409 5406 5403 5400 5398 5395 5393 5390 5387 5385 5382 5380 5378 5375 5374 5371 5368 5365 5361 5358 5355 5353 5351 5350
5472 5472 5472 5472 5471 5471 5470 5470 5470 5470 5469 5468 5468 5467 5466 5466 5466 5465 5464 5463 5463 5462 5461 5461 5460 5459 5458 5457 5456 5456 5455 5454 5453 5451 5450 5449 5447 5446 5445 5444 5443 5442 5440 5439 5438 5437 5435 5434 5432 5430 5428 5425 5423 5420 5418 5416 5414 5412 5410 5408 5406 5404 5402 5399 5396 5394 5391 5388 5385 5383 5380 5377 5375 5373 5371 5369 5367 5365 5363 5360 5357 5354 5351 5349 5347 5346
5469 5468 5468 5468 5467 5467 5466 5466 5466 5465 5465 5464 5464 5463 5463 5462 5462 5461 5460 5460 5459 5458 5458 5457 5456 5455 5454 5453 5452 5452 5451 5450 5449 5447 5446 5445 5444 5442 5441 5440 5439 5438 5436 5435 5434 5433 5431 5430 5427 5425 5422 5420 5417 5414 5411 5409 5407 5405 5403 5401 5399 5397 5395 5392 5390 5387 5384 5381 5379 5376 5373 5370 5368 5366 5364 5362 5360 5359 5358 5356 5354 5350 5348 5345 5344 5343
5465 5465 5464 5464 5464 5463 5463 5462 5462 5462 5461 5460 5460 5460 5459 5459 5458 5457 5457 5456 5455 5455 5454 5453 5452 5452 5450 5450 5448 5447 5446 5445 5444 5443 5441 5440 5439 5438 5437 5435 5435 5434 5432 5431 5430 5429 5427 5425 5423 5420 5417 5414 5412 5410 5406 5403 5401 5399 5397 5394 5392 5390 5388 5385 5383 5380 5378 5375 5372 5370 5367 5365 5362 5360 5358 5356 5355 5354 5353 5352 5350 5348 5345 5342 5341 5340